sat.trackr.live / text

‹ back to catalog

STARLINK-34603

NORAD 65220 · 2025-176Y

PAYLOAD ACTIVE UNKNOWN

§ Identity

Operator
Country
US
Launch date
2025-08-14
Launch site
AFETR
Launch vehicle
Mass (kg)
RCS (m²)

Purposes: comms

External: N2YO · Heavens-Above · Gunter

§ Orbital elements

Epoch: 2026-05-25T01:17:37.262400Z

Period
93.85 min
Inclination
53.1581°
Eccentricity
0.0000823
Mean motion
15.34405883 rev/d
Perigee alt
462.1 km
Apogee alt
463.2 km
Semi-major
6,840.8 km
B*
6.0839e-4
RAAN
157.2158°
Arg perigee
87.4451°
Mean anomaly
272.6646°
Rev number
4,482

§ Raw data

STARLINK-346031 65220U 25176Y   26145.05390350  .00020239  00000+0  60839-3 0  99932 65220  53.1581 157.2158 0000823  87.4451 272.6646 15.34405883 44823

JSON: /api/v1/satellites/65220 · /tle

For live sub-satellite position, see the globe view (requires WebGL).

§ Visibility from observer

Set your observer location to see the next 7 days of passes ≥ 10°. The values pass through the URL so the page stays shareable.

No JS? Fill the form by hand. The geolocation button needs JavaScript.